    Orbital elements:
    2022 QK204                                               Earth MOID = 0.4981 AU
    Epoch 2023 Feb. 25.0 TT = JDT 2460000.5                 Veres                   
    M  83.69440              (2000.0)            P               Q                  
    n   0.33526376     Peri.  177.27557     -0.92280686     -0.33112913             
    a   2.0521620      Node   339.63638     +0.34190905     -0.46831524             
    e   0.8420067      Incl.   34.46658     +0.17755480     -0.81916686             
    P   2.94           H   17.62          G   0.15           U   0                  
    Residuals in seconds of arc
    090924 F51 (0.4+  0.2+)   210912 F51  0.1+  0.1+    220817 807  0.0   0.2+
    090924 F51  0.1-  0.2+    210912 F51  0.1-  0.2+    220818 L87  1.7+  1.2-
    110830 F51  0.3-  0.2-    210913 F51  0.1+  0.0     220818 L87  2.1+  1.6-
    110830 F51  0.0   0.0     210913 F51  0.0   0.1+    220818 Y00  0.2-  0.1+
    110830 F51  0.1+  0.4+    210913 F51  0.1+  0.1-    220818 Y00  0.2+  0.4+
    140727 F51  0.1-  0.0     210913 F51  0.1+  0.0     220818 Y00  0.1+  0.3+
    140729 F51  0.4+  0.0     210913 F51  0.1-  0.2+    220821 Q62  0.3+  0.2+
    140729 F51  0.1-  0.2+    210923 F51  0.1+  0.0     220821 Q62  0.5-  0.5+
    140729 F51  0.0   0.2+    210926 F51  0.0   0.1+    220821 L87  0.8+  1.6-
    140730 F51  0.1+  0.4-    210926 F51  0.3-  0.1-    220821 L87  0.5-  1.6-
    140730 F51  0.1-  0.4-    210930 F52  0.3+  0.0     220822 L87  0.0   2.7-
    140730 F51  0.1+  0.2+    210930 F52  0.1-  0.0     220822 L87  0.0   1.9-
    140828 F51  0.1+  0.2+    211004 F52  0.0   0.0     220822 L87  0.9+  1.5-
    140828 F51  0.1-  0.0     211006 F51  0.1+  0.1-    220823 L81  0.5+  0.1+
    140828 F51  0.1-  0.5-    211006 F51  0.2-  0.2-    220823 L81  0.0   0.4+
    150725 F51  0.2+  0.0     211006 F51  0.0   0.3+    220826 807  0.0   0.0
    150725 F51  0.2+  0.1-    211006 F51  0.1+  0.3-    220826 807  0.1-  0.6-
    150821 F51  0.1-  0.1+    211027 F51  0.1+  0.0     220826 807  0.1-  0.2+
    150821 F51 (0.0   0.5+)   211027 F51  0.2+  0.2-    220828 R65  0.3+  0.3-
    150821 F51 (0.3-  0.4-)   211031 F52  0.2+  0.2+    220828 R65  0.1-  0.0
    150821 F51  0.2-  0.1-    211031 F52  0.1-  0.2-    220828 R65  0.1+  0.1-
    151016 F51  0.0   0.0     211031 F52  0.0   0.1-    220916 L87  0.6-  0.3+
    151016 F51  0.2-  0.3-    211107 F51  0.0   0.0     220916 L87  0.3-  0.3+
    151016 F51  0.1+  0.3+    211107 F51  0.1+  0.0     220916 L87  1.3-  0.3-
    151016 F51  0.1-  0.1+    211107 F51  0.3-  0.0     220916 L87  0.4+  0.3+
    151102 F51  0.0   0.0     220816 L87  0.2+  0.4+    220917 L87  0.0   0.2-
    151102 F51  0.0   0.1-    220816 L87  0.8+  1.3+    220917 L87  0.1-  0.0
    151103 F51  0.0   0.0     220816 L87  0.6+  0.2+    220917 L87  0.2-  0.6-
    151103 F51  0.1-  0.1-    220816 L87  1.2-  2.3-    220918 L87  0.3-  0.2+
    151103 F51  0.1+  0.2-    220816 L87  0.9-  0.4-    220918 L87  0.3-  0.5-
    151103 F51  0.2+  0.0     220816 L87  0.6-  1.4+    220918 L87  0.9-  0.5-
    170818 F51  0.3-  0.2-    220816 Y00  0.4+  0.4-    220921 L87  0.1+  0.3-
    180813 F51  0.1+  0.1+    220816 Y00  0.3-  0.3+    220921 L87  0.4-  0.1+
    180813 F51  0.0   0.2+    220816 Y00  0.0   0.8+    220921 L87  0.0   0.1+
    180813 F51  0.0   0.1+    220817 L87  0.2+  0.4+    220922 L87  0.1+  0.2-
    200914 F51  0.1+  0.1-    220817 L87  0.7+  0.9-    220922 L87  0.4+  0.7-
    200917 F51  0.1+  0.1-    220817 L87  0.9+  0.2+    220922 L87  0.8+  0.1-
    200918 F51  0.0   0.0     220817 L87  1.0+  0.3-    220923 L87  0.6+  0.3-
    200918 F51  0.0   0.2+    220817 L87  0.3-  0.3-    220923 L87  0.3+  0.2-
    210806 F51  0.1-  0.0     220817 L87  0.2-  0.6-    220926 L87  0.3+  0.8+
    210806 F51  0.0   0.2+    220817 M21  0.0   0.3+    220926 L87  0.1+  0.9+
    210828 F51  0.1+  0.1+    220817 Y00  0.2+  0.5+    220928 L87  0.2-  0.2-
    210901 F51  0.1-  0.1-    220817 Y00  0.4+  0.0     220928 L87  0.1-  0.4-
    210907 F51  0.0   0.1-    220817 Y00  0.1+  0.0     220929 L87  0.3-  0.2+
    210907 F51  0.2-  0.0     220817 807  0.0   0.4+    220929 L87  0.7+  0.1+
    210912 F51  0.0   0.1-    220817 807  0.0   0.1+
    
    Ephemeris:
    2022 QK204               a,e,i = 2.05, 0.84, 34                  q = 0.3242
    Date    TT    R. A. (2000) Decl.     Delta      r    Elong.  Phase     V
    2023 01 10    21 06 02.4 -27 25 46   3.5895  2.7205    24.0     8.4    23.2
    ...
    2023 01 25    21 26 27.4 -25 14 24   3.7617  2.8225    15.0     5.2    23.2
    ...
    2023 02 02    21 36 51.3 -24 06 43   3.8347  2.8743    11.1     3.8    23.2
    ...
    2023 02 08    21 44 25.5 -23 17 07   3.8806  2.9118     9.3     3.2    23.2
    2023 02 09    21 45 40.1 -23 08 57   3.8875  2.9180     9.2     3.1    23.2
    2023 02 10    21 46 54.3 -23 00 49   3.8942  2.9242     9.1     3.1    23.2
    ...
    2023 02 16    21 54 12.9 -22 12 35   3.9298  2.9604     9.6     3.2    23.3
    ...
    2023 02 24    22 03 38.9 -21 10 00   3.9648  3.0073    12.7     4.1    23.4
    ...
    2023 03 11    22 20 18.6 -19 18 41   3.9927  3.0906    21.6     6.8    23.6
    
    A. U. Tomatic                (C) Copyright 2023 MPC           M.P.E.C. 2023-C55
    


    Read MPEC 2023-C54 Read MPEC 2023-C56


    MPEC number:

    Enter an MPEC number in one of the following forms:

    • 1997-B01 (the full form)
    • J97B01 (the packed version of the full form)
    • B01 (the abbreviated form)